Flag for Brazil Weather past 2 weeks in Rio Branco, Acre, Brazil

Now
75 °F

Clear.


Feels Like: 75 °F
Forecast: 72 / 84 °F
Wind: 3 mph from Northwest

Location: Rio Branco Airport

Current Time: Feb 27, 2015 at 9:22:18 PM

Latest Report: Feb 27, 2015 at 9:00 PM


Visibility: 10 mi

Pressure: 29.86 "Hg

Humidity: 89%

Dew point: 72 °F

Location of Rio BrancoLocation

Historic Weather in Rio Branco — Graph

°F

Rio Branco temperature yesterday

Maximum temperature yesterday: 86 °F (at 2:00 PM)
Minimum temperature yesterday: 70 °F (at 4:00 AM)
Average temperature yesterday: 78 °F

Past Weeks' High & Low Weather Summary

 TemperatureHumidityPressure
High90 °F (Feb 15, 4:00 PM)100% (Feb 14, 2:00 AM)30.04 "Hg (Feb 14, 2:00 AM)
Low37 °F (Feb 14, 7:00 PM)29% (Feb 26, 4:00 AM)29.71 "Hg (Feb 16, 3:00 PM)
Average75 °F87%29.86 "Hg
* Reported Feb 12 8:00 PM — Feb 27 8:00 PM, Rio Branco, Weather by CustomWeather, © 2015

Note: Actual official high and low records may vary slightly from our data, if they occured in-between our weather recording intervals... More about our weather records

Advertising

Rio Branco weather history for previous 24 hours

 ConditionsComfort  
Time TempWeatherWind HumidityBarometerVisibility
8:00 PM
Fri, Feb 27
73 °FClear.2 mph94%29.83 "Hg10 mi
7:00 PM75 °FPassing clouds.2 mph89%29.80 "HgN/A
6:00 PM77 °FScattered clouds.8 mph83%29.77 "HgN/A
5:00 PM84 °FScattered clouds.7 mph74%29.74 "HgN/A
4:00 PM88 °FScattered clouds.6 mph66%29.74 "HgN/A
3:00 PM88 °FScattered clouds.2 mph62%29.77 "HgN/A
2:00 PM86 °FScattered clouds.3 mph59%29.83 "HgN/A
1:00 PM86 °FBroken clouds.6 mph62%29.89 "HgN/A
12:00 PM82 °FBroken clouds.8 mph66%29.92 "HgN/A
11:00 AM82 °FScattered clouds.3 mph70%29.92 "HgN/A
10:00 AM81 °FBroken clouds.7 mph70%29.95 "HgN/A
9:00 AM81 °FBroken clouds.6 mph74%29.98 "HgN/A
8:00 AM75 °FPartly sunny.2 mph83%29.95 "HgN/A
7:00 AM72 °FPartly sunny.3 mph94%29.92 "HgN/A
6:00 AM70 °FPassing clouds.5 mph94%29.89 "HgN/A
5:00 AM72 °FPartly cloudy.2 mph88%29.89 "HgN/A
4:00 AM72 °FPassing clouds.3 mph88%29.83 "HgN/A
3:00 AM72 °FPassing clouds.7 mph88%29.83 "HgN/A
2:00 AM72 °FLight rain. Passing clouds.8 mph88%29.86 "HgN/A
1:00 AM73 °FThunderstorms. Passing clouds.8 mph89%N/AN/A
12:00 AM75 °FThunderstorms. Passing clouds.10 mph89%29.89 "HgN/A
11:00 PM
Thu, Feb 26
75 °FThunderstorms. Passing clouds.No wind89%29.89 "HgN/A
10:00 PM73 °FClear.No wind94%29.89 "Hg10 mi
9:00 PM75 °FClear.2 mph89%29.83 "Hg10 mi
Weather by CustomWeather, © 2015

See weather overviewHow to use our weather pages